This demonstration page uses our WeatherBlox Daily Observations layout. Learn more.

Left ArrowRight Arrow

39.01783, -85.05884

Hourly Observations for April 13, 2018

Temp ( °F °C ) Dew Point ( °F °C ) Humidity (%) Winds ( mph kmh ) Pressure ( in mb ) Visibility ( mi km ) Precip ( " mm )
12:52 am 00:52 Cloudy 71 21.7 39 3.9 31 31 SSW 20 31 29.76 1008 10 16 N/A
1:52 am 01:52 Cloudy 69 20.6 39 3.9 33 33 SSW 13 20 29.76 1008 10 16 N/A
2:52 am 02:52 Cloudy 68 20 40 4.4 36 36 SSW 16 26 29.77 1008 10 16 N/A
3:52 am 03:52 Mostly Cloudy 67 19.4 40 4.4 37 37 SSW 13 20 29.78 1008 10 16 N/A
4:52 am 04:52 Mostly Cloudy 66 18.9 41 5 40 40 SSW 16 26 29.80 1009 10 16 N/A
5:52 am 05:52 Mostly Cloudy 65 18.3 42 5.6 43 43 SSW 17 28 29.80 1009 10 16 N/A
6:52 am 06:52 Mostly Cloudy 64 17.8 42 5.6 45 45 SSW 10 17 29.83 1010 10 16 N/A
7:52 am 07:52 Mostly Cloudy 64 17.8 43 6.1 46 46 SSW 9 15 29.85 1011 10 16 N/A
8:52 am 08:52 Mostly Cloudy 66 18.9 44 6.7 45 45 S 16 26 29.85 1011 10 16 N/A
9:52 am 09:52 Partly Cloudy 68 20 47 8.3 47 47 SSW 20 31 29.85 1011 10 16 N/A
10:52 am 10:52 Partly Cloudy 70 21.1 46 7.8 42 42 S 23 37 29.84 1011 10 16 N/A
11:52 am 11:52 Partly Cloudy 72 22.2 43 6.1 35 35 SSW 24 39 29.83 1010 10 16 N/A
12:52 pm 12:52 Mostly Sunny 75 23.9 43 6.1 32 32 SSW 23 37 29.80 1009 10 16 N/A
1:52 pm 13:52 Mostly Sunny 77 25 43 6.1 30 30 S 23 37 29.80 1009 10 16 N/A
2:52 pm 14:52 Mostly Sunny 79 26.1 44 6.7 29 29 SSW 20 31 29.79 1009 10 16 N/A
3:52 pm 15:52 Partly Cloudy 79 26.1 43 6.1 28 28 SSW 21 33 29.80 1009 10 16 N/A
4:52 pm 16:52 Mostly Cloudy 78 25.6 43 6.1 29 29 SW 16 26 29.81 1009 10 16 N/A
5:52 pm 17:52 Mostly Cloudy 79 26.1 45 7.2 30 30 SW 17 28 29.82 1010 10 16 N/A
6:52 pm 18:52 Mostly Cloudy 76 24.4 45 7.2 33 33 SSW 12 19 29.82 1010 10 16 N/A
7:52 pm 19:52 Mostly Cloudy 75 23.9 45 7.2 34 34 SSW 12 19 29.82 1010 10 16 N/A
8:52 pm 20:52 Mostly Cloudy 72 22.2 46 7.8 40 40 SSW 7 11 29.83 1010 10 16 N/A
9:52 pm 21:52 Mostly Cloudy 69 20.6 46 7.8 44 44 SSW 7 11 29.85 1011 10 16 N/A
10:52 pm 22:52 Partly Cloudy 66 18.9 46 7.8 49 49 S 7 11 29.84 1011 10 16 N/A
11:52 pm 23:52 Partly Cloudy 64 17.8 46 7.8 52 52 S 7 11 29.83 1010 10 16 N/A

Powered by AerisWeather